Regional Weather Roundup
Issued by NWS Midland/Odessa, TX

Home | Current Version | Previous Version | Text Only | Print | Product List | Glossary On
Versions: 1 2 3 4 5 6 7 8 9 10 11 12 13 14 15 16 17 18 19 20 21 22 23 24 25 26 27 28 29 30 31 32 33 34 35 36 37 38 39 40 41 42 43 44 45 46 47 48 49 50
000
ASUS44 KMAF 301810
RWRMAF
MIDLAND AREA WEATHER ROUNDUP
NATIONAL WEATHER SERVICE MIDLAND TX
100 PM CDT TUE AUG 30 2016

...IN SOUTHWEST TEXAS AND SOUTHEAST NEW MEXICO...

CITY           SKY/WX    TMP DP  RH WIND       PRES   REMARKS
ALPINE         CLOUDY    71  62  73 NE8       30.28S
ANDREWS        PTSUNNY   77  65  67 NE9       30.20
ARTESIA        CLOUDY    70  70 100 NE10      30.24S
BIG SPRING     CLOUDY    78  68  71 N7        30.19S
CARLSBAD       LGT RAIN  67  65  93 N10       30.21S
DRYDEN           N/A     79  69  71 NE10      30.10F
FORT STOCKTON  CLOUDY    76  67  73 E7        30.16F
GUAD PASS      CLOUDY    67  61  81 E17       30.30S
HOBBS          PTSUNNY   73  73 100 E10       30.23F
MARFA          CLOUDY   N/A N/A N/A E7        30.25F
MIDLAND AIRPK  PTSUNNY   82  64  55 E8        30.18F
MIDLAND INTL   LGT RAIN  77  65  66 E10       30.17F
ODESSA         PTSUNNY   77  65  66 MISG      30.18F
PECOS          MOSUNNY   77  68  74 E7        30.14F
PRESIDIO       MOCLDY    81  65  57 NE7       30.12F
SEMINOLE       PTSUNNY   78  66  67 E7        30.22F
SNYDER           N/A     82  66  56 SE9       30.16F
WINK           PTSUNNY   81  63  54 E14G21    30.14F
$$
...OTHER STATIONS IN TEXAS...

CITY           SKY/WX    TMP DP  RH WIND       PRES   REMARKS
ABILENE        MOSUNNY   83  66  56 E10       30.13F
AMARILLO       CLOUDY    70  65  84 NW10      30.28F
AUSTIN         CLOUDY    86  73  65 NE8       30.01F
BROWNSVILLE    PTSUNNY   91  73  55 NW12G17   29.88F
CORPUS CHRISTI CLOUDY    80  77  90 E12       29.94S
DALLAS FTW     PTSUNNY   92  71  50 NE12      30.05F
DEL RIO        MOSUNNY   87  70  56 NE6       30.02F
EL PASO        LGT RAIN  67  65  93 E8        30.23S FOG
HOUSTON INT    PTSUNNY   91  73  55 E13       29.97F
LUBBOCK        CLOUDY    74  64  71 E17G24    30.22F
SAN ANGELO     CLOUDY    85  68  56 NE6       30.12F
SAN ANTONIO    CLOUDY    82  70  66 NE13      30.02F
WACO           MOSUNNY   90  72  55 E12       30.04F
WICHITA FALLS  NOT AVBL
$$
...OTHER LOCATIONS IN NEW MEXICO...

CITY           SKY/WX    TMP DP  RH WIND       PRES   REMARKS
ALAMAGORDO     PTSUNNY   73  57  56 SE5       30.24S
ALBUQUERQUE    MOSUNNY   77  49  37 E9G18     30.33F
CANNON AFB     LGT RAIN  67  67 100 E8        30.29F
CLOVIS         CLOUDY    66  63  88 E8        30.29F
HOLLOMAN AFB   PTSUNNY   76  56  48 VRB5      30.21F
ROSWELL        CLOUDY    70  65  84 NE8       30.25S
RUIDOSO          N/A     61  54  77 SE9       30.42S
SANTA FE       SUNNY     72  45  37 VRB5      30.38F
TRUTH OR CONSE MOSUNNY   78  52  40 N10G20    30.26F
TUCUMCARI      PTSUNNY   71  63  75 NE8       30.28F
$$




USA.gov is the U.S. government's official web portal to all federal, state and local government web resources and services.